Regional Weather Roundup
Issued by NWS

Home | Current Version | Previous Version | Text Only | Print | Product List | Glossary On
Versions: 1 2 3 4 5 6 7 8 9 10 11 12 13 14 15 16 17 18 19 20 21 22 23 24 25 26 27 28 29 30 31 32 33 34 35 36 37 38 39 40 41 42 43 44 45 46 47 48 49 50
000
ASUS43 KLOT 080011
RWRIL

ILLINOIS REGIONAL WEATHER ROUNDUP
NATIONAL WEATHER SERVICE CHICAGO/ROMEOVILLE IL
600 PM CST WED DEC 07 2016

NOTE: "FAIR" INDICATES FEW OR NO CLOUDS BELOW 12,000 FEET WITH NO
SIGNIFICANT WEATHER AND/OR OBSTRUCTIONS TO VISIBILITY.

* THESE STATIONS ARE NOT UNDER NWS QUALITY CONTROL. THEY ALSO MAY NOT
  REPORT WEATHER SUCH AS PRECIPITATION OR FOG.

ILZ001-002-007-009-015-016-024-080100-
NORTHWEST ILLINOIS

CITY           SKY/WX    TMP DP  RH WIND       PRES   REMARKS
MOLINE         PTCLDY    25  14  63 W21G26    30.22R WCI  11
6HR MIN TEMP:  25; 6HR MAX TEMP:  29;

STERLING*      MOCLDY    23  17  78 W17       30.20R WCI   9
SAVANNA*       CLOUDY    24  15  69 W14G21    30.19S WCI  11
$$

ILZ003-004-008-010-011-017-018-080100-
NORTH CENTRAL ILLINOIS

CITY           SKY/WX    TMP DP  RH WIND       PRES   REMARKS
ROCKFORD       FLURRIES  22  14  71 W15G23    30.17R WCI   9
6HR MIN TEMP:  22; 6HR MAX TEMP:  26; 6HR PCP: TRACE;

FREEPORT*      CLOUDY    20  14  76 W18G25    30.17R WCI   5
ROCHELLE*      CLOUDY    22  17  78 W16G22    30.18R WCI   9
DE KALB*       CLOUDY    23  17  78 W17       30.14S WCI   9
$$

ILZ005-006-012>014-019>023-080100-
NORTHEAST ILLINOIS

CITY           SKY/WX    TMP DP  RH WIND       PRES   REMARKS
CHICAGO-OHARE  MOCLDY    24  16  71 W17G24    30.11S WCI  11
6HR MIN TEMP:  24; 6HR MAX TEMP:  27;

CHICAGO-MIDWAY MOCLDY    26  16  65 W17       30.13S WCI  13
6HR MIN TEMP:  26; 6HR MAX TEMP:  30;

AURORA         CLEAR     24  17  74 W17       30.15R WCI  11
6HR MIN TEMP:  24; 6HR MAX TEMP:  27;

LANSING*       CLEAR     27  22  82 W13       30.14S WCI  16
JOLIET*        CLOUDY    28  21  75 W10       30.17R WCI  18
WAUKEGAN       CLOUDY    24  17  74 W7        30.07S WCI  16
6HR MIN TEMP:  24; 6HR MAX TEMP:  30;

DUPAGE AIRPORT CLEAR     23  16  74 W16G23    30.13R WCI  10
6HR MIN TEMP:  23; 6HR MAX TEMP:  25;

KANKAKEE*      CLEAR     28  22  77 W10       30.17S WCI  19
WHEELING       PTCLDY    24  16  71 W15G22    30.12R WCI  11
6HR MIN TEMP:  24; 6HR MAX TEMP:  29;

MORRIS*        CLOUDY    26  19  73 W17       30.17R WCI  14
ROMEOVILLE*    CLEAR     24  22  91 W15       30.16R WCI  12
NORTHERLY ISL    N/A     26  19  75 W15         N/A  WCI  14
$$

LMZ740>746-080100-
SOUTHERN LAKE MICHIGAN

STATION/POSITION SKY/WX   TEMP    WIND        PRES    VSBY  WAVE
                          AIR SEA DIR/SP/G                  HT/PER
                          (F)     (DEG/KT/KT) (MB)    (MI)  (FT/S)
HARRISON CRIB              27     260/ 19/ 22   N/A
BURNHAM HARBOR             26     280/ 10/ 18   N/A
CALUMET HARBOR             26     230/ 11/ 16 1019.4R
BURNS HARBOR               30     250/ 19/ 24 1020.3R
MICHIGAN CITY              29     220/ 31/ 35   N/A
$$

ILZ025>027-034>036-040-047-049-050-058-095>099-080100-
WEST-CENTRAL ILLINOIS

CITY           SKY/WX    TMP DP  RH WIND       PRES   REMARKS
QUINCY         PTCLDY    28  15  58 W13       30.27R WCI  17
GALESBURG*     PTCLDY    25  18  73 W9        30.23R WCI  15
MACOMB*        CLEAR     27  19  71 W10       30.27S WCI  17
JACKSONVILLE*  PTCLDY    29  19  65 NW10      30.25R WCI  20
PITTSFIELD*    MOCLDY    31  19  62 NW6       30.27R WCI  25
$$

ILZ028>032-037-038-041>044-048-051>054-059>061-080100-
CENTRAL ILLINOIS

CITY           SKY/WX    TMP DP  RH WIND       PRES   REMARKS
PONTIAC        PTCLDY    29  24  80 W18       30.20R WCI  17
BLOOMINGTON    CLEAR     27  20  75 W12       30.20R WCI  17
DECATUR        PTCLDY    30  19  63 W9        30.21S WCI  22
PEORIA         CLEAR     28  16  60 W12G18    30.23R WCI  18
6HR MIN TEMP:  28; 6HR MAX TEMP:  31;

LACON*         CLEAR     26  17  67 W10G20    30.21S WCI  16
LINCOLN*       PTCLDY    30  22  72 W8        30.23R WCI  23
SPRINGFIELD    CLEAR     32  21  64 NW8       30.25R WCI  25
6HR MIN TEMP:  32; 6HR MAX TEMP:  35;

TAYLORVILLE    MOCLDY    31  21  66 CALM      30.24R
6HR MIN TEMP:  31; 6HR MAX TEMP:  34;

$$

ILZ033-039-045-046-055>057-062-063-080100-
EAST-CENTRAL ILLINOIS

CITY           SKY/WX    TMP DP  RH WIND       PRES   REMARKS
CHAMPAIGN      CLOUDY    30  22  72 W12       30.20R WCI  20
RANTOUL*       PTCLDY    32  25  76 W10       30.19R WCI  24
MATTOON        MOCLDY    29  22  75 W7        30.20S WCI  22
PARIS*         CLOUDY    30  27  86 W8        30.22R WCI  23
$$

ILZ079-100>102-080100-
SOUTHWEST ILLINOIS

CITY           SKY/WX    TMP DP  RH WIND       PRES   REMARKS
ALTON          CLOUDY    32  21  64 W8        30.27R WCI  25
BELLEVILLE     CLOUDY    35  19  51 W6        30.26R WCI  30
CAHOKIA*       CLOUDY    37  17  44 W8        30.27R WCI  31
SPARTA*        CLOUDY    35  21  56 NW3       30.28R
$$

ILZ064>066-069>071-074>076-080>082-084>086-088>090-092>094-080100-
SOUTH-CENTRAL ILLINOIS

CITY           SKY/WX    TMP DP  RH WIND       PRES   REMARKS
CARBONDALE     CLOUDY    35  25  66 N5        30.26R WCI  31
6HR MIN TEMP:  35; 6HR MAX TEMP:  39;

CAIRO*         CLOUDY    39  25  58 N9        30.24R WCI  32
EFFINGHAM*     CLOUDY    32  25  73 W5        30.25R WCI  28
MARION         CLOUDY    37  23  56 NW3       30.26R
CENTRALIA*     CLOUDY    35  26  69 CALM      30.24S
SALEM*         CLOUDY    35  24  64 W6        30.24R WCI  30
METROPOLIS*    CLOUDY    39  24  55 N6        30.25R WCI  34
$$

ILZ067-068-072-073-078-083-087-091-080100-
SOUTHEAST ILLINOIS

CITY           SKY/WX    TMP DP  RH WIND       PRES   REMARKS
LAWRENCEVILLE  CLOUDY    35  24  64 W5        30.23R WCI  31
FLORA*         CLOUDY    35  25  66 W5        30.24R WCI  31
FAIRFIELD*     CLOUDY    35  23  62 CALM      30.23S
HARRISBURG*    CLOUDY    37  25  63 NW6       30.26R WCI  32
ROBINSON*      CLOUDY    33  26  75 NW7       30.23R WCI  27
CARMI*         CLOUDY    36  27  72 NW7       30.23F WCI  30
$$

ABBREVIATIONS USED IN REMARKS
   TC - TEMPERATURE IN CELSIUS
  WCI - WIND CHILL INDEX
   HX - HEAT INDEX
  VSB - VISIBILITY
$$




USA.gov is the U.S. government's official web portal to all federal, state and local government web resources and services.